Theta_e
312 312 312 313 313 314 315 315 315 315 315 315 314 313 314 312 313 315 315 315 317 316 315 317 317 317 320 320 324 332 336 335 333 335 337 337 338 340 341 341 342 342 342 343 344 344 344 344 344 344 344 343 343 342 341 339 336 335 336 337 337 336 336 336 336 336 336 335 336 337 336 336 335 335 335 334 334 333 333 332 330 329 328 328 330 332
312 312 312 312 314 314 315 316 317 317 315 315 314 313 313 312 313 315 315 316 316 316 316 317 317 317 321 322 323 328 332 333 334 337 337 337 338 339 340 341 341 341 341 342 343 343 344 344 344 344 344 343 343 342 341 339 338 337 337 337 337 336 335 335 336 335 336 335 335 336 335 335 334 335 335 334 334 333 333 332 330 327 327 329 331 332
311 311 312 312 314 314 315 316 317 317 315 314 314 313 312 313 315 315 316 316 316 317 317 316 316 318 322 323 325 329 332 334 336 338 338 339 338 337 339 340 340 340 341 341 341 342 343 343 344 344 344 343 343 342 341 338 338 337 337 336 336 335 335 335 335 335 335 335 334 334 335 334 334 334 335 334 334 333 332 332 331 328 328 330 331 331
311 311 312 313 314 316 317 316 316 316 316 314 314 312 312 313 314 313 314 317 316 317 318 316 317 320 323 324 326 330 333 334 334 336 337 338 339 338 339 339 339 340 341 341 340 341 342 342 343 343 342 342 342 341 339 338 337 337 337 336 335 335 334 334 335 334 334 334 333 334 335 334 334 334 335 335 334 333 332 333 333 332 330 331 331 330
312 312 313 314 315 316 316 315 315 315 314 315 315 313 312 314 314 314 315 316 316 317 318 317 316 319 321 323 326 329 331 332 332 334 336 337 338 338 339 339 340 340 340 341 340 339 341 342 341 341 341 340 340 340 338 337 337 337 336 335 335 334 334 334 334 334 334 334 333 333 334 334 334 334 334 334 334 333 332 332 333 333 332 331 331 330
313 313 314 314 313 314 314 314 315 315 314 314 315 315 314 314 314 315 315 315 315 314 317 317 314 316 321 323 326 329 330 332 333 335 336 335 337 337 338 339 340 340 340 340 340 339 340 341 340 340 340 339 339 338 337 335 336 337 336 335 335 334 334 333 334 334 334 334 334 334 333 334 333 333 334 335 334 334 333 332 332 332 332 331 331 331
313 314 314 313 312 313 314 314 314 314 314 313 315 315 315 315 315 315 315 313 313 313 317 317 314 315 320 323 327 330 330 332 332 334 335 334 335 335 337 338 339 340 340 339 338 338 339 340 339 339 339 338 337 337 336 334 335 336 336 336 335 335 335 334 334 334 334 334 334 334 334 334 333 333 333 334 334 334 333 333 333 331 332 331 332 332
313 314 313 312 313 313 314 314 314 314 313 313 315 315 315 315 314 315 314 313 314 316 317 317 315 315 317 323 328 329 331 332 332 332 332 333 334 336 337 337 338 339 338 338 337 337 338 338 339 339 338 337 336 336 336 335 335 336 336 336 336 335 336 335 335 334 333 333 334 335 335 334 334 333 333 333 333 332 332 332 332 331 331 331 332 333
314 313 312 312 313 313 313 314 315 314 314 315 316 314 315 315 315 315 314 314 315 316 314 315 315 314 316 323 327 328 330 332 331 331 330 331 333 334 335 335 336 336 336 336 335 336 337 336 337 336 336 335 336 336 336 336 336 337 336 336 335 336 336 336 335 334 334 334 333 334 334 334 334 334 334 333 333 332 331 330 330 330 330 330 331 332
314 314 313 313 313 313 313 314 315 314 314 316 315 315 315 315 315 315 314 314 315 315 313 314 314 312 315 322 323 325 329 330 331 330 329 330 332 332 332 332 333 334 333 334 335 334 334 334 334 333 333 334 335 335 335 336 337 337 336 335 335 335 335 335 335 335 334 334 333 333 333 333 333 333 333 333 333 333 332 331 331 329 329 329 330 332
314 314 314 314 314 314 314 314 315 315 315 316 315 315 315 315 315 315 315 315 315 314 314 314 314 313 314 318 322 326 329 330 331 329 328 330 331 331 330 330 331 332 331 331 332 332 332 332 332 331 332 333 333 334 334 335 336 336 335 333 333 332 332 333 333 333 333 333 333 333 332 332 332 332 332 333 332 333 332 331 331 331 329 328 329 331
315 314 314 315 315 315 315 314 315 315 315 315 314 313 314 314 315 314 314 315 315 314 314 314 315 314 314 319 325 329 328 329 329 329 328 329 329 330 330 329 329 330 330 330 330 330 330 330 330 330 331 331 331 332 333 333 334 334 332 331 331 330 329 329 329 329 331 332 332 332 331 331 331 331 331 331 331 332 332 331 330 330 329 328 329 330
314 314 314 315 315 316 315 313 314 314 314 314 314 313 313 312 314 314 313 314 315 314 315 316 314 314 319 324 328 329 328 328 329 329 329 329 329 329 329 329 329 329 329 329 329 328 328 328 328 328 328 328 329 329 330 330 330 330 330 329 330 330 329 329 329 329 330 330 330 330 331 330 331 331 331 331 331 331 330 330 329 329 329 329 330 329
313 314 314 314 315 315 314 314 313 313 313 313 313 313 312 313 314 314 314 314 315 314 316 316 313 317 325 328 328 329 328 329 330 330 330 329 329 329 329 328 328 328 328 328 327 326 326 326 326 326 326 326 327 327 328 328 328 328 329 328 328 329 328 328 329 329 329 329 329 329 330 330 329 330 330 330 331 330 329 329 327 327 328 329 329 329
313 314 314 314 315 315 314 314 314 314 313 313 314 313 312 312 314 314 313 314 315 315 316 316 314 319 326 328 328 330 330 329 330 329 329 329 328 328 327 327 326 326 326 325 324 324 324 324 324 324 324 325 325 326 326 326 327 327 327 328 328 327 327 328 328 328 328 329 330 329 329 329 329 329 330 329 329 329 329 328 326 326 327 327 327 328
312 313 314 314 315 314 314 314 315 314 313 314 314 313 313 313 313 313 314 316 315 315 316 317 320 324 327 327 328 330 329 329 329 329 328 327 327 326 326 325 325 324 324 323 323 323 323 324 324 324 324 324 324 324 324 325 326 325 326 326 326 326 327 328 328 327 327 328 329 328 328 328 327 328 329 330 330 328 328 328 326 325 325 325 326 327
312 312 313 313 314 314 314 314 315 314 314 314 313 313 314 315 315 314 315 317 315 315 318 321 325 328 328 328 328 328 329 328 328 328 327 326 326 325 325 324 323 323 322 322 322 322 322 322 323 323 323 323 323 323 324 324 325 325 325 325 326 326 327 327 328 326 326 327 327 327 326 325 326 327 329 330 330 329 328 327 327 326 325 324 324 326
313 312 313 313 313 313 315 314 314 315 315 313 312 313 314 315 317 315 314 315 314 316 320 320 324 327 328 328 328 328 329 329 328 327 326 325 325 324 324 323 322 322 321 321 321 321 321 321 321 321 322 322 322 322 323 323 323 324 324 324 325 326 326 327 327 327 326 327 327 327 326 324 325 328 329 330 330 330 330 328 327 327 325 323 324 325
313 312 313 313 313 313 314 314 314 314 314 314 313 314 314 314 315 315 314 315 314 316 321 321 322 323 324 327 328 328 329 329 328 326 325 325 325 324 323 322 322 321 321 321 320 320 320 320 320 320 321 321 321 321 322 322 322 322 323 323 323 324 325 326 327 327 327 327 327 328 327 325 325 327 328 329 330 330 330 330 329 329 327 324 324 327
314 313 312 313 313 313 313 313 313 313 314 314 314 314 314 314 314 314 314 315 313 315 320 322 321 319 321 327 329 327 328 328 327 326 325 324 324 323 322 321 321 320 320 319 319 319 319 318 319 319 320 320 320 320 321 321 321 321 322 322 322 323 324 324 325 327 327 327 327 327 327 325 325 327 327 328 329 330 330 330 330 329 328 326 325 328
314 314 313 313 313 313 313 313 313 314 313 313 313 313 314 314 315 315 315 314 313 313 318 320 319 319 324 329 328 327 327 327 327 325 324 323 322 321 321 320 319 319 318 318 317 317 318 318 318 318 318 319 319 319 320 320 320 320 320 321 322 323 323 323 324 325 326 327 327 327 327 326 324 325 327 327 328 329 329 329 329 329 328 326 326 328
314 314 314 313 312 312 313 313 315 315 314 314 314 313 313 314 314 315 314 314 314 313 315 317 317 321 327 328 327 326 327 327 326 324 323 322 320 319 318 318 317 317 317 316 316 316 316 316 317 317 317 318 318 318 319 319 319 319 319 321 322 322 322 323 323 323 324 326 327 327 327 326 323 323 326 327 327 327 329 330 330 330 329 327 328 328
316 314 313 313 313 314 315 315 316 316 315 314 314 314 314 314 314 313 313 314 314 315 316 315 315 323 327 326 327 328 327 327 325 323 322 319 318 318 317 316 316 316 316 316 316 316 315 315 316 316 317 317 316 317 317 318 318 318 319 320 321 322 322 322 323 323 323 324 326 327 328 326 323 322 325 327 327 327 329 330 330 330 329 328 329 329
316 314 314 313 314 315 315 316 315 315 315 314 314 315 314 314 315 314 314 315 315 314 315 313 315 324 327 326 329 329 327 327 324 322 320 318 317 317 316 316 316 316 316 315 315 315 315 315 316 316 316 316 316 316 317 317 317 318 318 319 320 321 322 322 323 323 322 323 324 326 327 327 325 324 326 328 327 327 328 329 329 330 330 329 330 329
314 314 315 314 314 316 316 315 315 314 315 314 315 316 315 314 316 316 316 316 314 314 314 312 316 325 328 327 328 328 327 326 323 321 319 317 316 315 315 316 316 316 315 315 315 315 315 315 315 315 316 315 315 316 316 316 316 317 317 318 319 320 321 322 322 322 322 322 323 324 326 327 327 327 327 327 328 328 328 329 330 330 330 330 330 329
314 316 317 315 315 316 316 316 316 314 315 315 316 317 316 315 315 316 316 313 314 316 315 312 318 327 329 327 327 326 325 323 321 319 318 318 317 315 315 315 315 315 314 314 315 315 315 314 314 315 315 315 315 316 315 315 316 316 316 317 318 319 320 321 321 322 322 322 323 324 325 326 327 328 327 327 328 328 328 329 329 330 330 330 329 328
316 318 320 319 317 316 317 319 319 317 315 317 317 316 316 317 317 316 315 313 315 317 314 315 324 328 328 328 326 324 322 320 319 319 318 318 317 315 314 313 313 313 313 313 314 314 314 314 314 314 314 315 315 315 315 315 316 316 315 317 317 318 319 320 321 321 322 322 322 323 324 325 326 328 328 327 328 328 329 329 329 330 330 330 329 327
315 317 321 323 321 320 320 322 322 320 317 317 317 317 317 319 319 317 314 315 316 314 314 321 329 328 327 328 325 321 320 319 319 318 317 317 315 314 314 313 312 312 312 312 313 313 314 314 314 314 314 315 315 316 315 315 316 316 316 317 317 317 317 318 319 321 322 322 323 323 323 324 325 327 327 328 327 327 328 329 328 328 329 330 329 327
315 316 321 323 322 321 321 320 321 321 320 320 320 320 319 319 321 319 318 320 318 314 317 324 329 327 327 327 323 321 321 320 318 317 316 315 315 314 314 313 313 313 312 312 312 313 313 314 314 314 314 314 315 316 316 316 316 316 316 317 316 316 317 317 318 320 321 322 323 323 323 324 324 325 326 327 327 327 327 327 327 328 328 329 330 328
318 318 321 323 323 321 320 320 320 320 321 322 322 322 320 321 323 323 323 326 323 319 323 329 329 327 326 324 322 320 319 318 316 315 315 314 314 313 313 313 312 312 311 311 312 312 313 313 314 314 314 315 315 316 316 316 317 317 316 316 316 316 316 317 318 319 321 322 323 324 324 324 324 324 325 325 326 326 327 327 327 327 328 328 329 329
320 319 321 324 322 321 321 321 321 321 322 322 322 321 322 322 322 322 324 327 325 325 329 330 328 324 319 318 318 316 315 315 314 314 314 313 313 312 312 312 312 310 311 311 312 312 313 314 314 314 314 315 315 315 316 316 317 317 317 315 315 316 316 317 318 318 319 320 321 322 322 323 323 324 324 324 324 325 326 326 326 327 327 326 327 328
320 319 322 323 320 321 321 321 322 322 322 322 321 321 322 323 323 323 324 326 327 329 330 328 327 322 315 313 314 313 313 313 312 313 312 312 312 312 312 312 311 310 311 311 312 312 313 313 313 313 314 314 314 315 315 316 316 318 317 315 315 316 316 316 317 318 318 318 319 319 319 320 322 323 323 324 324 324 324 325 325 327 327 326 327 328
319 319 320 319 319 321 321 321 323 322 320 321 320 318 320 321 322 322 322 323 325 328 327 325 323 319 313 312 312 311 311 311 311 311 311 311 312 312 312 311 310 310 311 312 312 313 313 313 313 313 314 313 313 314 314 315 316 317 317 315 315 316 316 316 317 317 317 318 318 318 318 318 320 321 322 322 323 323 323 324 324 325 326 326 326 327
320 319 319 318 320 321 320 321 322 321 320 320 316 315 316 320 321 321 320 319 321 321 321 319 317 314 312 312 311 309 309 308 309 309 309 310 310 311 311 309 309 310 312 312 312 312 313 313 313 313 313 312 312 312 312 314 315 315 315 316 315 315 315 315 316 317 317 317 317 317 317 318 319 320 321 322 322 323 323 323 323 323 323 323 324 325
320 319 319 319 320 320 320 320 320 320 320 317 314 314 316 317 317 317 317 317 318 318 316 315 314 312 311 310 308 307 306 306 307 307 307 308 309 310 309 308 308 310 311 311 311 312 312 312 312 312 312 311 310 309 310 312 313 313 314 315 315 315 314 314 315 316 316 317 317 317 317 318 319 320 320 321 321 321 322 322 322 322 321 321 322 322
320 319 318 319 320 320 319 319 319 319 317 315 314 315 315 316 317 317 317 316 316 316 315 312 310 310 309 307 306 306 305 304 305 305 305 307 308 309 308 307 307 309 310 309 309 309 310 310 310 310 310 310 308 308 308 310 310 311 313 314 314 315 314 315 315 315 315 316 317 317 317 317 319 319 319 319 320 320 320 320 320 319 319 320 321 321
320 318 318 319 319 319 320 319 318 317 317 317 316 316 316 317 318 319 319 315 314 315 314 309 307 307 306 305 305 304 305 305 304 303 304 305 306 306 306 306 307 307 308 307 307 307 307 307 307 307 307 307 307 307 308 309 308 309 311 312 313 314 314 314 314 315 315 316 316 317 317 316 317 318 319 319 320 319 319 319 318 317 317 318 320 321
319 319 319 319 318 318 319 319 318 319 320 319 317 315 315 316 317 317 319 316 313 314 313 309 307 307 306 305 305 305 307 309 306 303 303 304 304 304 304 305 305 306 306 306 305 305 305 305 305 305 305 305 305 305 307 309 308 308 309 310 311 312 313 314 313 314 314 315 316 316 316 315 316 317 317 318 319 319 318 318 317 317 317 318 319 320
319 319 319 318 318 318 319 319 319 319 318 317 316 314 315 316 316 317 320 319 315 313 313 310 308 307 306 305 306 308 312 313 307 303 302 303 303 304 303 303 304 304 304 304 303 303 303 304 303 304 304 304 304 304 306 308 308 307 308 308 308 310 311 312 312 312 313 314 315 316 315 315 315 315 315 316 317 317 317 317 316 316 316 317 318 317
318 318 317 317 318 318 318 318 318 317 315 315 315 314 314 314 314 317 320 320 315 313 313 311 309 307 306 306 307 308 312 312 306 302 302 303 303 303 303 303 303 303 303 303 303 303 302 302 303 303 304 303 302 303 304 305 306 306 306 306 306 307 309 310 311 311 312 312 313 314 314 314 314 314 314 314 315 315 315 315 315 315 316 316 316 316
316 316 317 317 317 317 318 318 317 315 314 314 314 313 313 314 315 318 319 317 314 313 312 311 309 308 307 307 307 306 306 307 305 302 302 302 302 302 302 302 303 303 303 303 302 302 301 302 302 302 302 302 302 302 302 303 304 303 303 303 304 306 307 309 310 310 311 311 312 313 313 313 313 313 313 313 313 313 314 314 314 314 314 315 316 316
316 316 316 316 316 316 316 317 316 314 312 312 312 312 313 316 317 316 315 313 313 312 311 310 309 307 306 306 305 303 303 303 302 301 301 301 301 301 302 302 302 301 301 301 301 301 301 301 301 301 301 302 302 302 301 302 302 301 300 300 301 303 305 306 308 310 310 311 311 311 312 312 312 312 312 312 312 312 312 312 312 313 313 313 313 314
314 315 316 315 314 315 316 316 316 314 311 310 312 313 314 316 315 312 311 312 312 310 309 308 306 306 305 304 303 302 302 302 301 301 301 301 301 301 301 301 301 301 301 301 301 301 301 301 301 301 301 301 301 301 301 301 301 299 299 299 299 300 301 303 305 307 308 309 310 310 310 309 309 309 310 310 311 311 311 311 311 311 311 311 311 311
312 313 316 314 312 314 316 315 313 311 309 310 313 313 313 312 312 312 312 312 310 309 308 306 304 304 304 303 302 302 301 301 301 301 301 301 301 301 300 300 301 301 301 301 300 300 301 301 301 301 301 301 300 301 300 300 299 298 298 297 297 297 298 299 302 303 305 306 308 308 308 307 307 307 306 306 307 307 308 308 309 309 309 309 309 309
310 310 313 311 309 311 313 311 307 306 307 309 310 311 310 310 311 312 312 311 310 309 307 305 303 303 303 302 302 302 301 301 301 301 301 301 300 299 300 300 300 300 300 300 300 300 301 301 301 301 301 301 300 300 300 300 299 299 298 298 297 296 296 297 298 299 300 302 304 306 306 305 305 304 303 302 302 303 304 305 306 307 307 307 307 306
308 309 311 310 307 307 308 307 306 307 307 308 308 308 308 310 311 312 312 311 310 308 307 305 304 303 302 302 302 302 301 301 301 300 300 299 299 300 300 300 300 300 300 300 300 301 301 301 301 301 301 301 301 301 301 300 300 299 299 298 298 297 297 296 296 296 297 297 299 300 301 301 301 300 299 299 298 298 298 300 302 304 305 305 305 304
307 309 311 310 308 309 309 307 306 307 307 307 307 307 307 309 310 310 310 310 309 307 306 305 304 302 302 302 302 301 301 301 300 299 299 299 299 300 300 300 300 300 300 300 300 300 301 301 301 301 301 301 301 301 301 301 301 300 299 299 299 298 298 297 296 296 296 296 296 296 297 297 297 297 297 296 296 296 296 296 297 299 300 301 301 302
309 310 310 309 308 309 308 306 305 305 305 306 306 306 307 308 309 309 309 309 308 307 305 304 304 303 302 302 302 301 300 300 299 299 299 299 299 299 299 299 299 299 299 299 299 300 300 300 301 301 300 300 300 301 301 301 301 300 300 300 299 299 298 298 297 297 297 296 296 295 295 296 295 296 296 296 296 296 296 296 295 296 296 296 296 297
309 310 309 308 307 306 306 305 305 305 305 304 305 305 306 307 307 307 307 306 306 305 304 304 304 304 303 302 302 301 301 300 299 299 299 299 299 299 299 299 299 299 299 298 298 299 299 300 300 300 300 300 300 301 301 301 300 300 300 300 300 299 298 297 297 298 298 298 297 296 296 295 295 295 295 295 295 295 295 295 295 295 295 295 295 295
309 310 309 308 307 308 307 306 307 309 308 305 304 304 304 305 306 306 306 305 304 304 304 303 304 303 303 302 301 301 301 300 299 299 299 299 299 299 299 299 299 298 298 297 296 296 297 299 299 299 300 300 300 300 301 300 300 300 300 300 300 299 299 299 298 298 297 297 297 297 297 296 296 295 295 295 294 294 294 294 294 294 294 294 294 294
309 310 309 309 310 310 309 307 308 309 308 304 303 303 304 305 305 305 305 305 304 303 303 303 303 302 301 301 300 300 300 300 300 300 299 299 299 299 298 298 298 298 298 297 296 296 297 299 300 300 300 300 300 300 300 300 300 300 300 300 300 300 300 300 299 299 298 297 296 297 297 297 297 297 297 296 296 295 295 294 294 293 294 294 294 294
Wind_Speed
14 9 9 11 12 14 15 15 12 6 7 11 11 10 9 10 10 9 8 7 7 10 12 13 14 10 8 8 5 4 5 6 8 8 7 7 8 8 8 9 9 9 7 7 8 9 8 8 8 7 7 6 6 5 4 4 5 4 4 2 3 3 4 5 7 8 10 12 12 13 13 13 13 12 12 13 12 13 14 14 13 15 16 15 13 14
13 10 11 13 13 16 16 15 10 6 8 10 10 10 9 10 10 10 8 7 4 7 10 13 12 7 8 7 4 2 5 6 4 5 5 6 7 7 8 8 9 8 6 5 6 7 6 6 7 7 7 7 6 5 4 4 4 3 2 1 3 3 3 4 5 6 8 10 10 11 13 13 11 11 12 12 12 13 13 12 12 14 15 14 14 14
10 10 13 16 14 14 15 13 11 9 9 9 8 9 9 9 9 9 8 6 4 5 7 13 11 6 8 5 6 3 3 3 2 1 0 3 6 7 7 8 8 8 7 5 4 5 5 4 5 6 7 6 5 4 3 2 1 1 1 1 3 3 2 3 5 5 7 10 11 11 12 13 12 12 12 11 12 13 13 12 12 13 14 14 14 13
9 10 14 16 14 14 14 14 14 11 9 9 9 8 8 10 9 8 8 7 4 3 3 12 10 5 7 6 7 5 4 4 3 4 4 2 3 5 6 6 7 7 7 6 3 4 4 3 3 4 4 4 3 2 1 0 0 1 1 2 2 3 2 3 6 6 6 9 11 12 13 14 13 13 11 11 12 13 13 12 13 14 14 14 14 14
9 10 14 15 14 16 15 14 15 11 9 10 10 9 8 13 10 5 9 9 5 1 3 10 9 5 7 7 6 6 5 4 4 5 5 5 4 4 6 6 5 6 6 6 4 3 4 4 3 3 2 1 1 1 1 1 1 1 1 3 3 3 4 4 6 6 5 7 9 10 12 13 13 13 11 11 11 13 14 13 14 15 14 14 14 15
10 10 15 16 15 18 16 14 16 13 9 10 11 10 7 12 12 7 12 11 6 6 8 11 8 6 8 8 7 6 6 6 6 6 6 7 6 6 8 6 5 5 5 5 4 3 3 4 3 3 1 1 0 1 3 2 1 1 2 2 3 4 5 5 6 6 4 5 6 7 8 8 10 10 9 9 10 11 13 14 14 15 13 13 14 16
8 12 15 15 16 19 17 14 17 16 10 8 12 12 6 7 10 9 11 11 7 6 9 11 9 5 9 8 8 7 7 9 8 7 8 8 8 7 8 6 6 7 6 5 4 2 2 3 3 2 1 2 1 1 3 2 1 2 2 1 2 2 4 5 5 6 5 5 5 6 6 8 10 10 10 11 11 11 12 13 14 15 14 13 14 16
9 14 15 17 17 17 15 13 16 17 11 6 13 15 10 7 9 10 10 10 6 4 7 11 10 5 7 9 9 9 9 10 9 8 9 10 11 10 9 8 8 9 7 5 4 3 3 3 3 2 2 3 2 2 3 3 2 3 3 2 1 1 3 6 7 7 6 6 5 6 8 9 11 11 11 12 12 12 13 13 14 15 15 15 15 17
11 15 16 18 18 13 13 13 16 18 12 5 12 15 11 9 9 9 9 8 5 3 6 11 11 7 7 9 9 10 10 10 9 9 10 10 12 11 10 10 10 10 8 7 7 5 4 2 2 2 2 4 5 5 5 5 4 5 5 4 2 2 3 6 9 9 8 8 7 8 9 10 10 11 12 12 12 12 13 13 14 15 15 16 17 17
12 18 19 18 15 12 14 14 16 18 12 6 11 11 8 7 8 7 8 7 5 6 8 12 13 9 6 10 9 10 10 8 9 9 9 10 12 12 10 9 10 9 8 8 7 5 3 2 1 2 3 4 5 6 6 6 6 7 7 7 7 6 6 7 8 9 9 10 9 9 10 10 11 12 13 13 12 12 13 13 14 15 15 17 19 18
11 17 19 16 14 13 14 12 15 19 11 7 10 10 8 7 6 5 6 6 6 8 10 14 17 12 6 9 9 7 6 5 7 9 9 10 11 12 10 10 10 9 8 7 7 5 4 3 3 3 3 3 4 6 7 8 8 8 9 9 8 8 8 8 9 11 13 12 11 10 11 12 13 14 14 14 14 12 12 13 14 14 14 16 19 19
11 14 13 12 14 13 12 11 12 14 10 8 10 10 9 8 6 6 6 6 7 8 9 13 16 13 8 7 7 7 7 6 7 8 9 9 9 10 10 10 10 9 9 8 8 8 6 6 6 6 6 6 5 4 5 7 7 8 7 7 6 7 9 10 10 12 14 14 12 11 12 14 14 14 15 16 15 13 13 14 14 14 14 15 16 16
11 12 12 12 13 13 13 11 9 10 9 10 10 10 10 9 8 8 9 8 8 6 7 12 14 10 4 7 9 10 9 7 8 10 10 10 10 10 10 11 11 10 11 10 10 10 9 10 10 9 8 7 6 6 5 5 5 5 6 6 6 6 7 7 8 9 9 11 11 12 14 15 16 16 16 16 16 15 16 16 15 15 14 14 14 14
9 12 15 14 11 15 15 11 9 10 11 12 11 11 11 9 9 10 9 9 9 5 6 10 12 9 5 8 10 11 10 10 12 13 12 13 14 14 14 14 13 13 13 13 13 13 12 11 10 9 8 7 7 7 6 5 5 5 5 5 5 5 5 5 6 6 6 7 8 9 11 12 14 16 18 18 18 17 16 17 17 16 15 14 14 14
11 10 13 13 10 15 17 12 11 11 11 12 10 10 10 8 9 9 8 11 12 8 7 8 8 7 6 8 9 11 12 12 14 14 14 15 16 17 16 15 14 14 14 14 14 14 13 12 11 11 10 9 8 8 7 7 6 6 6 6 6 6 6 6 6 6 6 6 7 7 8 9 10 12 14 18 20 19 16 16 17 16 15 16 15 14
13 9 13 16 12 16 18 15 13 12 10 10 9 10 10 10 9 6 3 4 6 8 8 6 3 3 6 8 9 11 12 13 15 15 16 16 16 16 16 14 13 13 13 13 14 14 15 15 15 14 13 12 10 9 8 8 7 5 5 5 6 6 6 6 7 7 7 6 6 7 8 9 10 11 11 12 15 16 16 16 17 16 16 16 16 15
11 8 15 17 11 14 20 17 14 13 9 7 9 10 6 6 7 6 3 2 3 7 6 4 4 6 6 7 9 11 12 12 13 15 16 16 15 15 15 13 13 13 13 13 13 14 15 15 15 15 14 13 12 11 10 8 7 5 5 5 5 6 7 6 6 6 6 5 6 7 8 9 11 11 11 10 11 12 13 14 15 15 16 16 17 16
9 7 13 17 13 13 19 18 15 14 11 7 9 11 5 2 4 7 6 4 7 8 5 5 8 10 8 7 10 12 13 13 12 14 15 15 15 15 14 13 12 12 12 12 12 12 13 13 12 12 12 13 11 10 9 8 8 7 6 6 6 7 8 7 6 5 4 5 5 6 7 8 9 9 10 11 11 11 11 13 14 15 16 17 17 17
9 7 10 17 15 12 14 15 14 14 13 8 9 11 8 5 6 8 8 8 10 8 6 8 11 10 9 9 13 15 14 14 13 12 13 13 15 15 14 12 12 12 11 11 11 10 11 11 11 10 9 9 9 9 8 8 7 7 6 7 8 8 9 8 6 4 4 4 5 6 6 7 8 9 10 10 11 12 12 13 13 14 15 16 16 16
9 7 7 12 13 12 11 10 11 12 10 9 10 10 8 7 7 8 7 7 10 8 7 10 10 8 7 9 15 18 16 15 14 12 11 13 14 13 12 11 11 11 10 10 10 10 10 9 9 9 8 8 8 8 8 7 7 7 7 8 8 8 8 7 5 5 5 5 5 6 7 7 7 8 9 9 10 11 12 12 12 12 13 15 15 14
7 7 5 9 10 10 10 10 12 13 12 9 10 12 10 7 5 8 7 5 7 9 8 9 9 6 4 6 14 18 16 15 15 13 13 14 14 12 11 10 10 10 9 10 10 10 10 9 9 9 8 8 8 8 8 8 7 8 8 8 8 8 8 7 6 5 6 6 6 6 7 6 7 7 8 8 8 9 10 11 10 11 12 14 15 13
6 7 6 8 10 10 12 11 10 12 15 12 9 11 12 9 8 9 8 5 6 7 7 8 9 5 3 4 11 15 14 15 17 16 16 16 15 12 11 11 10 10 9 10 10 10 10 9 9 9 9 9 9 9 9 9 8 8 9 8 8 8 8 8 7 6 6 6 6 7 7 7 6 5 6 7 7 8 9 9 9 10 12 14 14 13
2 5 8 10 10 9 7 5 2 5 13 15 11 11 11 10 10 10 8 7 6 4 4 7 7 4 2 4 11 15 16 18 20 19 18 16 14 14 13 12 12 11 10 10 10 10 10 10 10 10 10 12 11 10 10 10 9 9 9 8 7 8 9 9 8 7 7 7 7 7 8 8 6 5 5 5 6 7 7 7 7 8 9 11 12 12
1 4 9 10 9 7 5 4 1 3 9 12 11 11 12 12 12 10 7 8 7 6 6 6 6 5 4 6 13 20 21 20 19 20 20 17 15 14 14 12 11 10 10 10 10 11 12 12 12 12 12 13 13 11 11 11 10 10 10 9 8 9 9 9 9 9 8 8 8 8 8 8 7 6 5 4 5 6 6 5 6 7 9 10 11 13
4 6 9 9 10 8 6 7 7 7 9 10 10 11 12 15 16 10 6 7 8 8 9 7 5 6 6 8 14 19 20 19 19 20 20 18 17 15 13 13 12 11 11 10 11 13 13 13 14 13 13 14 13 12 11 11 10 11 12 11 10 10 10 10 10 10 10 9 8 8 8 9 8 6 5 4 3 4 5 5 6 7 8 10 12 14
5 4 6 9 11 11 11 10 8 9 10 8 10 12 11 14 17 11 6 8 7 8 9 7 4 8 10 12 15 15 16 17 18 20 18 17 17 15 14 13 12 12 12 12 13 14 13 14 14 14 14 14 14 13 11 11 11 11 12 14 13 12 11 12 12 11 11 11 10 7 7 8 7 5 5 4 3 3 4 5 6 7 8 10 13 13
3 0 1 1 4 6 7 5 3 8 12 10 12 14 12 12 14 11 8 7 7 8 8 6 10 14 14 16 16 15 16 16 16 18 19 18 16 15 14 14 13 13 12 13 15 15 13 14 14 14 14 14 14 14 11 11 12 12 14 15 15 14 13 13 13 13 12 12 10 7 6 6 6 5 5 5 4 3 3 4 6 6 7 10 12 13
4 3 3 5 5 3 3 4 3 6 12 13 13 14 10 8 9 11 9 6 8 8 6 8 16 16 16 17 17 16 16 15 15 18 19 18 17 16 15 14 14 14 13 13 14 14 13 13 15 15 15 15 16 16 14 13 14 16 16 16 15 14 14 13 14 16 15 12 11 9 7 5 6 6 5 5 4 4 4 4 5 5 7 10 11 11
6 5 2 4 7 7 5 4 4 7 8 8 9 10 8 6 7 10 8 6 8 6 5 11 14 12 15 18 16 16 17 16 16 18 19 19 18 16 15 15 14 14 13 12 13 13 13 13 15 16 15 16 18 19 19 18 18 18 18 18 16 14 14 13 15 18 17 14 13 13 11 7 7 8 5 4 4 4 4 5 6 6 8 9 9 10
3 4 4 6 8 9 7 5 6 9 11 9 8 7 6 5 4 5 4 4 4 3 7 14 13 9 9 14 15 17 19 19 19 19 19 19 18 16 15 14 14 14 13 12 13 13 11 12 15 16 16 16 18 19 20 20 20 19 18 19 17 15 14 14 15 18 18 17 16 15 13 10 8 8 7 5 3 2 3 5 6 7 8 9 11 12
2 4 6 5 6 7 6 6 7 9 12 12 10 8 6 6 6 6 6 4 3 6 13 17 15 9 6 12 18 20 21 21 20 20 20 18 17 16 15 14 14 14 14 13 13 12 10 12 16 16 15 16 17 19 20 20 19 19 18 17 16 16 15 14 16 18 20 20 19 17 14 12 10 9 8 8 8 5 2 4 5 5 7 8 9 12
3 5 4 5 4 5 4 5 9 11 13 13 11 9 6 5 6 6 5 4 3 8 15 14 10 7 6 13 19 19 20 20 19 19 20 17 16 15 15 15 14 14 14 14 13 12 12 14 16 16 15 15 16 17 18 19 18 18 18 15 14 15 15 16 17 18 20 22 23 21 18 14 11 11 10 10 10 9 6 5 4 4 7 6 6 9
5 7 5 6 5 4 2 4 8 10 10 8 7 6 5 4 6 6 6 7 8 2 9 6 6 11 13 15 17 16 17 18 17 17 18 17 16 15 15 15 14 15 15 15 14 13 13 14 15 15 14 15 15 16 16 16 16 17 18 15 13 13 16 19 20 19 20 22 25 26 23 17 13 12 12 12 12 11 9 9 8 5 6 7 5 7
7 8 6 5 4 5 4 3 4 7 8 4 2 2 2 2 4 6 7 7 9 6 6 8 11 15 14 14 15 15 15 16 16 16 16 15 15 16 16 15 15 17 16 15 15 13 12 12 13 13 13 13 14 15 14 15 16 17 17 17 17 15 16 19 21 21 22 23 25 27 26 21 15 14 14 14 13 12 11 10 10 9 8 6 5 7
9 8 5 4 4 5 5 5 6 6 4 1 1 1 2 3 7 11 10 8 7 9 12 14 15 15 14 16 19 20 20 18 17 16 14 13 14 15 16 15 16 18 17 15 15 14 12 12 11 12 11 12 13 14 13 14 16 16 16 18 20 19 17 19 22 23 24 25 25 27 27 22 17 16 17 15 14 13 11 10 10 11 12 8 2 8
9 8 5 4 5 6 6 6 5 3 1 2 3 4 5 6 9 10 9 8 7 8 12 14 13 14 18 20 21 22 23 21 19 16 13 12 12 13 14 16 17 18 16 15 14 14 13 11 11 10 10 11 12 12 13 15 16 16 16 18 20 21 20 21 23 24 24 25 25 25 26 24 20 18 18 16 15 15 14 13 14 15 16 13 9 11
6 7 6 5 3 4 6 4 3 3 3 3 4 4 3 3 3 3 4 5 4 5 10 13 13 15 19 20 21 23 23 21 17 13 10 10 12 13 15 17 17 17 16 15 14 13 12 11 11 10 10 11 11 11 13 15 16 16 16 17 19 21 21 21 23 24 24 25 24 23 24 25 23 20 19 17 16 15 14 14 15 15 15 13 10 10
2 4 6 5 1 3 6 5 4 5 4 4 6 5 2 1 2 1 3 5 4 6 12 15 14 15 18 20 21 22 18 13 10 7 8 10 12 14 17 18 17 16 15 14 13 12 11 10 11 11 11 11 11 11 12 14 15 14 14 17 20 21 21 21 21 22 23 24 23 22 23 25 25 23 21 19 16 14 12 13 13 12 12 12 11 10
3 2 3 5 4 4 6 7 6 4 1 3 8 7 4 2 1 2 3 5 7 10 15 18 17 16 18 20 20 17 11 6 6 7 9 11 12 13 15 16 16 15 15 14 13 12 11 11 11 10 10 11 12 12 11 12 12 12 14 18 20 21 22 22 20 20 22 23 23 23 22 24 25 25 23 21 18 15 14 14 14 12 11 10 10 11
4 3 3 5 6 6 6 5 3 2 3 5 8 8 5 3 2 5 5 5 10 14 16 18 19 18 18 19 16 8 2 4 10 12 12 12 13 12 13 14 15 14 14 14 13 12 12 11 10 10 11 13 13 12 12 11 10 12 15 19 20 21 23 22 19 17 19 21 22 24 24 23 24 25 24 22 20 18 17 16 14 12 10 11 12 12
4 2 1 4 6 6 6 4 4 4 4 6 7 5 4 2 3 4 2 6 13 16 16 17 19 19 18 14 10 5 6 10 18 19 15 15 16 14 13 14 14 14 14 14 13 13 12 11 11 12 13 13 12 12 13 12 11 14 18 19 20 22 23 23 21 18 18 19 22 25 26 25 23 22 21 21 20 19 18 17 15 13 13 14 16 16
4 2 2 3 3 3 3 4 4 3 3 4 5 4 2 2 2 2 4 10 17 17 16 18 19 18 16 13 13 15 17 21 23 20 17 18 20 18 17 17 18 18 17 15 14 14 13 12 12 13 13 13 12 13 13 12 14 17 19 20 21 21 21 22 22 22 22 23 25 27 28 27 25 23 21 20 19 18 18 17 16 15 15 15 16 17
1 2 4 3 2 2 4 5 3 2 3 5 7 5 1 2 2 7 11 15 17 17 19 19 17 17 18 18 19 22 23 23 21 20 20 21 21 21 20 20 20 19 18 16 15 14 13 13 13 14 14 14 14 15 15 16 18 20 20 20 21 19 19 20 21 22 24 26 27 27 28 28 28 27 25 24 22 21 20 18 16 16 15 14 14 15
3 2 3 3 1 3 5 3 1 2 5 5 4 4 4 5 7 12 15 16 17 17 19 19 17 17 21 23 23 23 24 22 20 20 21 19 18 19 20 19 19 18 17 15 15 14 14 14 14 14 15 15 15 16 17 19 21 21 21 21 20 19 20 21 20 21 23 25 26 26 26 26 26 25 25 24 23 23 22 21 19 19 18 16 15 16
4 3 1 3 3 2 3 4 4 4 6 6 6 7 8 8 9 12 15 17 17 16 17 19 19 19 21 25 26 24 24 23 21 20 20 19 18 18 19 18 19 19 18 16 15 14 13 12 13 13 14 14 15 16 17 18 19 21 21 20 19 20 21 21 21 22 22 22 23 23 22 21 21 21 21 21 20 21 21 19 18 18 18 18 18 18
4 2 2 3 5 6 8 8 8 7 7 8 8 9 9 10 11 13 15 16 16 16 18 21 22 22 23 25 26 25 23 22 21 21 21 21 20 20 20 21 20 19 18 16 15 13 12 11 12 13 14 15 15 16 17 17 18 19 19 18 17 18 19 20 21 22 22 21 21 20 19 19 19 18 18 19 19 20 19 18 16 16 16 16 17 17
3 0 1 4 6 4 4 6 7 7 8 8 8 9 10 11 12 13 14 16 17 18 21 23 24 24 23 23 25 25 24 23 23 24 23 23 23 22 21 20 18 16 15 14 14 13 12 12 13 13 14 15 15 15 16 17 17 18 18 18 17 17 17 19 20 21 21 21 20 20 19 19 19 18 17 17 18 18 18 18 16 16 16 17 17 16
3 3 4 6 4 2 4 7 7 8 8 7 7 9 11 13 13 14 15 18 19 21 23 25 25 24 22 22 25 26 25 24 25 26 26 24 23 22 20 19 19 18 17 15 15 16 16 15 14 14 14 14 14 14 15 16 17 17 17 17 16 16 17 18 19 20 20 20 20 20 20 19 19 19 18 17 17 17 18 18 17 16 17 17 17 16
4 5 5 6 7 5 5 8 9 8 7 6 7 9 11 13 15 17 18 20 22 25 26 25 22 21 21 22 24 25 25 24 24 25 25 22 21 21 21 21 20 18 17 16 15 15 16 17 16 15 15 15 14 14 15 15 16 16 16 15 15 16 18 19 19 19 19 18 18 19 19 19 19 19 19 18 18 18 18 17 17 16 17 17 16 15
4 7 6 6 6 4 5 11 12 7 5 7 8 10 11 14 17 19 21 22 24 27 26 24 22 21 21 22 23 24 24 23 22 21 21 20 21 23 23 22 20 18 17 15 14 14 15 16 16 16 16 16 14 14 14 15 15 15 15 14 14 14 16 17 17 18 18 18 18 18 18 18 19 18 19 19 19 18 18 17 16 15 15 15 15 14
1 2 3 3 1 3 11 18 13 6 9 12 12 11 13 15 18 20 21 23 26 26 24 24 25 24 23 22 22 23 24 23 22 22 23 23 24 24 22 21 20 18 16 15 14 14 15 15 15 15 15 15 14 14 14 14 15 15 14 14 14 14 14 14 15 16 16 17 18 18 16 16 17 17 17 17 18 17 17 17 16 16 16 15 14 13
Wind_Direction
186 192 203 203 199 194 195 203 210 213 190 184 186 197 195 186 193 174 134 136 174 196 187 183 200 187 113 91 102 124 165 196 199 190 193 172 144 128 126 126 120 114 117 128 145 160 175 192 198 208 216 221 227 230 233 258 283 281 263 253 259 257 255 264 262 257 260 256 248 248 252 257 266 273 270 268 265 261 263 264 257 250 250 250 254 256
191 208 206 201 202 192 193 202 200 196 191 189 194 197 195 194 185 165 146 133 166 216 187 182 199 165 91 84 103 131 182 186 198 205 208 190 163 143 136 129 122 119 125 132 142 157 177 199 204 213 221 228 235 233 238 257 273 273 274 286 284 278 267 268 261 254 263 265 256 256 258 256 260 272 275 273 269 267 267 268 260 250 248 251 253 251
198 217 206 199 203 192 189 195 190 189 194 197 201 198 197 193 163 143 141 130 168 232 179 182 198 133 98 92 91 115 167 121 59 33 234 217 194 170 148 131 130 133 135 134 137 153 172 202 205 212 222 230 237 241 250 259 256 295 341 305 302 321 322 293 283 267 260 262 260 262 265 262 261 265 271 273 270 270 271 270 266 257 252 253 252 246
198 212 204 194 193 187 182 190 195 195 198 205 202 199 198 187 170 156 158 139 146 265 183 181 192 136 123 119 97 101 107 80 61 69 64 74 184 176 147 137 148 151 144 140 148 164 163 180 196 203 220 226 235 253 302 337 108 69 7 343 337 326 309 284 284 277 266 268 264 256 254 257 265 267 266 267 268 271 270 266 267 263 256 254 253 247
206 203 191 184 184 186 184 186 196 198 198 205 205 208 197 183 189 170 152 147 134 180 191 179 182 165 161 155 128 116 112 104 90 88 81 82 113 152 143 140 154 160 157 151 164 192 162 158 170 177 201 216 216 241 18 15 50 69 33 0 350 336 333 315 295 288 274 272 267 252 244 245 257 265 266 270 273 274 271 267 268 266 261 260 259 255
216 187 173 183 190 193 192 188 196 199 196 199 206 221 207 180 188 149 142 163 173 183 189 193 198 175 169 166 140 134 135 124 108 103 95 85 101 142 141 128 129 140 155 159 168 197 171 158 161 160 165 118 93 339 357 12 52 49 37 8 352 348 337 317 303 299 285 279 275 259 250 252 262 268 270 271 268 271 275 276 275 273 270 269 267 263
208 168 171 191 191 192 197 194 197 199 203 197 193 210 219 184 188 163 160 186 199 181 177 201 221 177 165 170 143 142 144 129 116 103 92 81 86 111 120 117 125 125 128 149 157 172 153 135 142 134 112 109 91 346 333 349 44 35 35 29 0 351 320 307 304 298 287 279 276 266 261 263 266 267 267 265 262 266 274 278 282 284 280 276 274 269
183 170 184 194 189 193 199 197 195 198 214 196 171 189 204 199 193 181 185 204 204 140 151 198 228 218 180 168 143 153 151 129 117 100 88 82 78 83 89 93 112 116 118 135 133 131 128 126 143 135 138 190 226 277 304 321 357 11 15 26 356 317 301 295 294 293 285 273 270 269 264 262 263 265 265 266 269 275 276 276 281 286 285 284 282 277
170 180 187 190 194 197 199 197 187 195 217 179 159 186 200 205 210 201 201 209 203 179 181 195 214 226 184 151 142 166 161 130 114 102 91 89 84 82 80 78 92 102 106 112 108 108 118 135 188 202 231 248 268 294 308 316 330 337 335 336 321 287 272 275 282 289 285 275 269 268 267 267 270 271 271 273 273 277 280 279 279 283 288 291 287 280
172 190 188 189 199 199 200 198 181 194 211 152 158 188 195 206 221 221 218 210 190 209 213 187 191 215 179 148 161 178 168 135 114 102 94 98 93 87 85 81 89 96 97 108 114 112 101 74 320 286 285 286 288 295 303 303 305 311 310 307 299 284 270 264 272 280 280 274 271 272 272 272 272 270 272 275 271 271 276 278 277 279 285 291 291 284
170 189 193 196 205 199 195 189 178 193 199 150 169 192 191 202 214 219 230 225 195 210 219 186 187 213 196 159 166 163 149 122 111 106 100 104 97 87 85 84 90 97 97 102 107 96 72 46 16 356 347 340 312 297 299 298 297 300 299 298 297 294 288 280 273 273 272 270 266 264 265 267 269 267 265 266 264 265 269 271 271 273 278 287 290 285
170 186 195 199 207 198 180 172 177 190 193 180 189 193 191 195 200 205 206 216 214 210 203 176 183 214 213 165 149 128 119 103 102 109 108 108 102 93 88 86 88 92 92 86 80 75 63 53 47 39 39 35 14 342 320 311 305 301 302 310 317 312 303 297 289 281 277 275 270 267 269 271 270 268 266 266 265 264 262 262 263 269 277 282 283 278
185 192 187 188 203 198 182 176 180 187 194 203 199 190 193 188 188 204 196 198 213 197 165 162 179 207 184 125 130 124 115 105 99 103 109 111 109 105 98 92 87 85 85 81 74 71 67 63 59 53 52 50 41 28 5 342 330 321 325 335 341 333 319 311 304 295 287 284 283 282 283 283 284 284 281 276 275 273 267 263 262 265 272 277 276 271
188 192 189 188 193 199 202 194 182 186 194 203 201 190 194 188 184 199 194 193 202 177 137 160 180 186 132 118 129 119 110 110 104 101 108 112 110 107 100 95 91 86 81 77 73 69 66 62 57 53 49 46 41 35 29 20 8 5 8 3 358 353 343 335 325 313 303 297 294 289 285 286 288 288 287 284 283 280 271 264 261 262 267 273 272 270
189 192 190 193 187 190 206 208 189 186 193 201 207 201 202 200 190 197 198 197 197 169 136 161 183 180 152 129 116 112 114 114 109 109 110 108 107 103 97 91 87 82 76 73 72 69 67 62 57 55 51 46 39 32 29 26 27 34 30 15 7 2 356 350 339 329 321 309 302 297 291 291 288 282 282 282 284 284 272 260 260 262 266 271 270 267
201 198 179 189 193 185 198 211 196 187 192 200 210 210 209 210 198 188 204 206 185 159 144 159 159 104 120 121 113 116 118 115 116 117 112 106 104 100 93 89 85 81 77 75 73 71 70 68 65 63 58 49 38 31 26 23 28 35 27 13 5 357 351 347 342 341 336 321 315 316 311 310 308 299 283 269 275 284 273 256 256 259 263 267 264 261
204 192 164 176 194 191 198 205 196 195 192 183 205 208 208 231 214 172 122 61 149 167 157 154 135 112 126 140 140 136 128 129 128 120 113 108 105 100 93 91 87 83 81 78 75 72 68 64 61 58 53 46 39 36 33 26 26 23 17 13 359 348 345 347 347 340 334 322 317 323 328 333 328 308 289 275 275 282 270 253 252 257 261 261 256 254
207 190 162 177 191 189 198 200 195 208 207 182 199 197 177 270 236 188 177 166 184 188 167 170 171 160 166 163 155 153 143 139 133 121 118 112 105 101 96 94 90 85 84 79 74 69 63 57 53 49 45 40 37 36 31 23 20 13 7 2 350 345 344 347 347 332 322 318 311 317 330 342 338 310 292 287 278 270 260 250 251 255 256 255 252 250
211 203 165 186 192 175 188 197 194 207 217 217 205 189 184 205 197 196 201 188 193 192 158 173 181 177 184 171 165 169 157 144 137 128 126 117 110 107 102 99 92 84 80 75 70 66 63 57 50 46 41 32 27 25 19 13 11 3 356 351 347 345 343 342 344 336 326 317 308 314 323 337 340 318 299 285 265 254 250 246 246 247 245 246 249 248
206 218 175 183 184 167 178 200 195 192 206 227 211 189 200 216 196 197 205 196 201 193 162 173 185 188 186 167 170 173 161 150 145 137 129 120 116 113 104 97 87 79 75 72 71 68 63 58 49 42 38 30 22 18 14 8 4 359 354 351 352 356 357 352 348 338 327 319 313 312 313 327 339 325 307 291 267 254 249 242 238 236 234 239 243 241
198 222 188 163 165 171 184 199 201 189 184 204 204 188 192 206 202 198 201 214 218 202 180 180 186 178 139 140 165 167 158 152 145 135 127 120 118 112 103 99 91 85 81 75 72 68 61 53 45 38 32 28 22 17 16 10 6 4 1 1 4 12 14 6 356 344 331 322 316 312 309 314 322 318 313 308 287 263 250 240 232 226 227 234 236 230
198 214 190 164 173 190 191 192 204 199 189 191 198 196 192 191 195 192 189 204 223 213 195 190 185 156 93 132 158 158 154 146 138 131 125 122 121 115 107 105 100 93 84 75 70 65 58 49 41 36 34 35 28 20 17 14 12 8 4 9 20 22 16 8 1 349 334 322 309 306 303 298 303 307 309 318 305 265 240 232 227 223 226 231 230 223
191 218 192 177 183 184 169 162 233 227 198 193 199 202 194 193 203 199 187 186 197 200 188 199 195 145 119 173 152 145 146 140 135 131 124 123 124 117 110 102 95 89 81 75 69 64 60 53 47 46 45 42 33 23 19 18 17 14 14 21 27 25 21 14 6 349 330 314 298 295 293 286 284 283 293 319 318 283 250 239 232 225 227 228 225 217
113 218 193 181 178 158 117 115 171 237 205 199 202 199 194 196 205 211 199 179 183 186 179 198 198 143 145 166 139 135 140 137 134 131 127 126 123 116 110 102 96 91 83 78 74 70 66 59 54 53 49 43 33 24 23 23 20 19 22 24 20 20 25 22 15 5 346 322 301 292 289 285 276 266 274 307 316 296 275 262 250 235 227 223 219 213
184 208 188 180 175 164 156 167 183 201 206 207 196 190 197 197 197 206 202 183 191 195 193 205 190 136 139 148 136 137 140 135 130 131 130 128 123 117 111 104 99 93 85 80 78 73 66 58 52 48 45 41 33 26 24 24 22 19 19 21 19 19 24 25 20 12 359 344 326 302 287 287 281 262 260 279 294 290 282 271 260 248 233 223 218 214
190 212 193 194 188 182 184 182 181 186 193 202 189 182 194 195 190 191 191 196 197 186 199 218 164 129 135 137 136 141 139 131 129 131 130 127 124 118 111 105 99 91 84 79 78 73 64 57 52 47 46 41 34 30 26 22 23 20 20 26 28 26 28 27 20 10 358 349 343 322 293 293 298 278 259 269 280 280 288 285 268 254 241 229 221 214
169 203 43 196 187 187 183 161 153 178 181 186 182 179 185 190 189 190 197 205 183 170 199 193 134 138 149 143 139 140 137 133 133 133 130 126 122 115 109 104 98 91 84 77 75 71 65 60 56 54 52 47 42 38 30 24 26 25 25 31 33 29 28 24 17 14 9 1 355 345 319 307 316 306 263 257 270 264 280 300 283 262 244 232 220 212
177 167 58 49 61 60 92 86 81 163 173 176 173 171 172 172 182 194 202 188 163 171 192 147 136 151 163 155 145 141 141 140 138 134 131 125 120 115 110 105 98 91 84 77 72 70 67 62 59 58 55 52 50 46 39 34 33 30 31 36 35 28 23 19 19 24 26 20 18 17 2 339 339 338 291 251 252 250 251 272 273 258 241 232 222 213
191 171 123 89 82 65 63 81 93 110 122 133 139 147 153 152 175 192 191 164 165 188 178 145 143 152 157 153 146 142 143 140 134 130 127 122 119 117 112 107 101 92 85 78 72 67 64 60 59 60 57 56 55 51 47 43 37 32 35 41 41 31 24 20 25 34 39 39 39 38 30 15 2 357 335 285 261 253 254 263 262 256 242 231 221 215
199 150 143 135 102 70 57 72 100 113 108 96 89 98 118 117 120 143 127 106 129 137 123 126 114 88 113 133 133 132 132 128 124 123 121 119 117 116 114 110 103 95 90 82 72 64 61 63 62 59 58 58 57 54 51 45 38 33 37 42 41 35 31 29 32 39 45 48 49 48 43 35 25 18 14 8 353 293 271 277 271 263 252 236 225 222
215 159 159 152 107 70 61 81 107 120 113 99 80 70 90 106 92 92 97 81 85 114 119 118 109 83 75 107 115 119 121 120 122 121 117 116 116 116 116 111 105 101 96 87 74 64 67 71 65 60 59 58 55 55 53 47 40 37 39 39 37 37 36 36 38 41 45 48 49 48 45 40 35 33 34 32 26 24 0 306 285 268 261 249 230 225
179 151 171 197 152 86 68 109 121 121 112 99 82 60 61 96 91 83 88 42 17 133 132 127 129 138 128 115 114 116 117 117 119 119 116 116 119 120 117 113 110 107 103 95 85 78 78 74 64 60 61 57 53 53 53 50 44 40 39 35 32 36 38 39 42 42 44 45 44 42 39 36 39 42 41 40 33 30 21 352 326 281 265 263 238 223
148 145 169 197 162 112 109 138 132 137 134 111 82 49 35 79 98 88 78 32 359 104 141 134 126 134 137 128 119 117 116 115 115 117 117 119 122 120 117 116 115 113 109 105 99 92 83 73 65 62 62 57 54 52 50 51 49 43 40 37 35 36 37 40 44 43 42 42 41 39 34 31 38 45 43 43 39 29 19 10 9 352 299 280 244 212
150 157 166 176 152 133 147 165 176 177 166 135 60 23 11 62 101 100 90 53 21 39 87 93 107 124 133 130 122 117 112 110 110 112 114 121 126 123 119 117 116 116 116 113 109 102 89 79 72 68 65 59 57 54 50 51 52 47 43 45 45 40 35 37 40 40 41 42 40 38 33 31 40 49 47 48 45 35 25 20 25 26 4 321 246 197
154 157 152 149 145 136 145 174 189 186 172 82 23 114 87 87 104 100 87 68 61 81 98 105 115 124 123 118 118 115 110 107 104 103 108 119 124 123 120 117 117 119 121 120 115 108 98 89 80 74 71 64 59 58 55 55 55 51 48 50 49 45 39 38 37 37 39 40 41 40 36 36 44 50 49 50 52 49 45 42 47 53 48 37 120 143
157 152 136 122 127 137 159 184 181 160 111 79 116 125 119 129 131 114 84 62 69 99 113 115 115 116 114 114 116 116 113 108 97 91 99 113 118 120 119 119 121 123 123 121 115 109 105 98 86 78 74 66 62 62 60 58 57 53 49 49 50 48 45 42 39 38 38 38 40 41 40 42 47 49 46 48 54 58 62 68 71 73 71 71 96 116
167 158 142 124 132 165 159 142 118 138 164 165 155 151 137 131 139 121 96 87 83 108 126 126 120 119 120 119 121 123 119 106 90 81 92 107 114 118 119 120 122 122 121 118 111 106 104 98 87 78 71 66 64 63 61 58 55 52 48 48 51 50 47 43 41 41 41 40 40 41 43 47 49 50 48 47 49 54 64 74 76 76 77 82 99 114
178 173 157 139 163 202 155 132 144 169 177 169 151 138 104 44 0 23 116 127 131 137 139 137 130 130 131 129 133 140 134 110 90 94 109 112 114 118 119 119 118 116 114 111 106 102 100 95 86 76 70 66 61 57 55 51 51 53 51 52 54 51 48 46 44 44 45 44 44 46 47 48 50 52 53 51 48 49 60 69 71 75 80 88 103 110
97 130 164 147 151 184 175 170 174 166 118 130 141 136 131 131 153 213 193 153 144 149 149 144 139 141 142 140 144 157 161 137 125 137 136 126 120 119 119 118 118 115 112 109 107 105 100 94 89 82 76 69 60 53 49 45 48 58 59 59 58 53 51 49 45 46 49 50 51 54 53 49 48 49 52 53 51 52 59 65 66 71 80 89 104 111
100 130 168 163 160 179 192 181 152 95 67 117 137 140 134 117 171 213 208 156 146 152 152 148 145 144 145 146 148 156 182 148 145 146 144 135 124 121 121 121 122 121 116 113 111 107 103 99 95 90 81 71 62 58 58 54 53 60 62 63 61 58 57 55 50 49 52 53 55 59 59 55 50 48 50 54 56 57 59 61 62 66 77 88 100 108
105 112 164 177 166 173 190 171 117 82 99 130 134 128 128 144 201 210 180 131 141 146 146 146 144 141 142 145 139 99 70 121 136 137 138 135 128 125 123 121 121 119 115 114 114 110 108 106 100 90 80 74 69 66 66 64 62 63 63 62 61 61 62 62 60 58 57 59 62 64 65 64 59 54 54 56 60 63 65 66 68 74 82 90 95 98
124 122 152 167 154 161 184 167 129 93 99 136 138 133 162 207 189 119 104 127 136 137 137 138 136 134 131 120 110 107 109 121 129 130 134 135 129 125 123 118 116 114 113 114 114 112 108 103 97 88 80 76 74 72 71 70 70 69 65 62 62 63 65 67 68 68 67 67 68 68 69 70 68 66 64 60 59 61 64 66 69 70 72 78 84 86
61 178 165 135 84 160 171 170 165 136 127 148 154 154 171 335 100 122 124 128 129 130 132 130 124 125 124 113 111 115 117 121 128 131 132 130 126 125 124 120 118 117 117 117 116 113 109 103 95 87 81 79 79 80 80 80 77 74 70 68 67 67 68 70 72 73 73 73 72 71 71 72 71 69 68 67 65 64 66 68 69 68 65 63 68 73
8 308 168 116 7 226 182 163 141 99 112 130 143 123 86 72 112 132 130 126 128 130 128 122 118 123 125 120 119 119 120 125 132 129 125 124 125 127 127 123 122 121 121 121 119 113 106 98 92 88 85 83 83 83 81 80 78 75 73 72 72 72 73 75 75 76 76 77 76 75 73 72 70 67 66 66 66 66 68 69 70 72 71 68 66 67
21 356 48 73 49 39 71 88 104 99 93 87 71 78 94 101 115 128 128 127 129 130 127 123 122 125 127 124 124 124 127 131 130 125 125 128 129 128 125 121 121 121 121 123 120 110 101 95 92 90 86 82 80 80 78 76 75 73 71 71 73 75 75 76 77 76 76 77 79 79 77 73 69 66 64 63 63 63 63 63 64 65 66 67 67 67
63 29 20 89 110 98 72 80 103 102 86 81 77 83 99 110 117 121 122 124 126 128 129 128 127 129 131 129 128 128 130 130 125 124 129 131 128 125 122 120 120 120 122 125 118 105 97 96 96 93 89 84 80 77 75 72 70 70 69 69 70 74 76 77 77 77 76 76 77 79 80 78 74 70 67 65 63 62 60 58 59 60 60 61 62 63
117 251 73 117 147 156 98 91 100 94 92 94 92 95 104 111 117 119 121 122 123 124 128 131 132 132 132 131 130 129 129 128 126 127 130 130 128 126 125 122 120 118 118 121 120 112 105 100 95 92 90 88 82 77 74 72 69 69 69 68 68 72 78 79 77 76 76 75 76 76 77 78 78 75 73 72 71 69 67 64 62 62 62 62 59 59
147 170 140 123 123 102 99 113 108 90 89 95 99 109 117 117 116 118 120 122 122 124 128 132 132 131 129 129 129 129 128 129 130 132 133 134 133 132 129 124 120 116 112 112 116 117 114 108 101 96 93 90 86 82 79 75 72 70 69 68 67 70 75 77 76 73 71 69 71 73 73 74 75 74 72 72 72 72 71 67 62 60 59 58 56 54
132 157 143 118 111 98 103 131 132 108 92 93 98 111 123 123 121 122 123 123 127 130 130 128 126 127 129 130 130 130 129 130 133 134 134 134 134 132 126 120 116 112 109 108 108 110 111 109 107 104 101 96 91 88 83 77 73 71 69 68 68 68 71 73 72 71 70 67 66 67 67 67 69 68 66 65 63 62 62 60 58 56 53 50 48 46
150 146 131 126 136 144 154 161 162 146 121 125 121 117 123 126 126 126 126 127 131 132 128 124 124 126 128 130 132 132 130 130 132 132 130 130 131 128 123 120 116 110 106 102 100 103 108 108 105 103 100 97 95 92 87 80 74 71 69 68 68 68 69 70 68 66 67 67 67 67 65 64 63 60 58 56 54 52 52 51 51 51 50 47 44 39
0 89 129 150 131 115 144 156 163 143 121 129 129 122 125 129 129 128 129 132 134 132 128 127 128 128 127 127 130 129 127 128 130 130 128 129 129 126 123 121 116 109 101 93 89 95 102 102 99 97 95 96 96 93 87 81 76 72 69 68 69 70 70 69 68 65 63 64 67 67 64 62 61 57 53 51 50 48 46 44 42 43 44 44 41 35